GFSMA_925_thetae_021.txt.gz
Theta_e
320 316 314 315 316 313 310 307 301 299 298 297 297 297 297 296 296 298 301 298 305 312 313 314 315 316 317 319 319 318 317 315 315 316 316 317 318 317 317 319 319 317 318
319 315 313 314 314 311 308 302 301 299 298 297 296 296 296 296 296 297 302 301 309 310 311 313 314 315 314 315 314 315 314 312 313 313 312 314 314 315 314 314 314 313 314
317 313 311 312 311 308 304 300 300 299 298 297 297 295 295 296 297 297 300 305 307 309 311 314 314 314 313 310 311 314 311 309 310 311 309 311 312 312 312 313 311 311 311
316 312 310 310 309 305 301 299 299 298 298 297 297 297 296 296 296 297 298 304 307 308 310 310 308 307 307 309 314 311 309 312 310 308 309 310 311 311 310 309 310 311 311
314 310 308 307 306 302 300 299 298 298 298 298 298 297 297 297 296 297 299 301 301 302 303 308 306 304 306 308 309 308 308 307 307 307 307 306 306 306 307 307 307 308 308
313 309 306 305 303 300 298 298 298 298 298 298 296 296 296 297 295 296 297 296 295 295 295 295 294 295 299 304 305 306 306 306 304 303 303 303 304 304 305 305 306 305 306
312 309 305 304 301 299 298 298 298 297 298 297 296 296 295 295 295 295 295 294 293 293 293 293 293 297 298 302 305 306 305 302 301 300 300 301 301 302 302 303 303 304 304
311 308 305 303 301 299 298 297 297 297 297 296 298 298 299 295 294 295 294 294 293 292 291 291 291 292 299 303 303 301 299 298 298 298 297 298 299 300 300 301 301 302 302
310 307 305 303 301 299 298 297 297 297 297 296 299 301 303 304 296 294 293 293 292 291 291 290 290 291 297 299 298 298 293 293 294 294 295 296 296 297 298 299 299 300 301
308 307 305 303 301 299 298 298 297 297 297 296 296 298 298 300 301 296 294 293 291 291 291 290 290 290 296 296 292 290 285 286 287 290 291 293 294 295 296 297 298 298 299
304 305 304 303 301 299 298 298 297 296 297 297 296 296 295 296 298 301 297 294 292 291 290 290 290 290 293 294 290 286 285 285 286 286 287 288 290 292 294 295 296 296 297
302 302 303 302 301 300 298 298 297 296 296 297 297 296 296 296 296 298 301 296 294 292 291 290 290 290 291 292 289 287 285 285 286 286 287 287 287 289 291 293 294 294 295
301 300 300 301 300 299 298 297 297 296 296 296 297 297 296 296 297 297 299 296 295 292 291 289 289 290 290 290 289 287 285 285 285 286 287 287 287 287 288 290 292 292 293
300 299 299 298 298 298 298 297 296 296 295 295 296 296 296 296 297 297 298 295 295 292 290 290 289 289 290 289 287 286 285 285 285 285 286 286 286 286 287 289 290 290 291
297 297 297 297 296 296 296 296 296 295 295 295 295 295 295 295 295 296 296 296 296 294 292 291 289 289 289 288 287 286 284 285 285 285 285 285 285 286 287 288 288 289 290
293 294 295 295 295 295 295 295 295 294 294 294 294 294 294 294 294 294 294 295 296 296 296 291 290 289 288 287 286 285 284 284 284 284 285 285 284 285 286 286 287 287 288
291 292 292 292 293 293 294 294 293 294 293 293 293 293 293 293 293 293 293 293 293 295 298 290 290 288 288 286 285 285 283 284 284 284 284 284 284 285 285 285 285 286 286
290 291 290 290 291 291 292 292 292 292 292 292 292 292 292 292 292 292 291 291 291 292 295 288 288 287 287 286 284 284 283 282 283 283 284 283 283 284 283 283 284 284 285
285 286 290 290 290 290 290 291 291 291 291 291 291 291 291 291 291 291 290 290 290 290 291 289 286 286 285 285 283 282 281 281 281 282 282 282 283 283 283 283 283 284 284
284 284 285 285 288 289 289 289 289 290 290 290 290 290 290 290 290 290 290 290 289 289 288 289 285 284 283 282 282 281 281 281 282 282 282 282 282 282 282 282 282 282 282
283 283 283 284 285 287 288 288 288 288 288 288 289 289 289 289 289 289 290 289 288 288 287 287 286 283 282 281 281 281 282 282 282 282 282 282 281 281 282 282 281 281 281
282 282 283 283 284 285 286 287 287 287 287 287 287 288 287 288 288 288 288 289 288 288 287 287 286 285 283 282 281 282 282 284 283 283 282 282 282 281 281 281 281 281 281
281 281 282 283 283 284 285 286 287 287 287 287 287 287 287 287 286 286 287 288 288 288 289 288 287 286 284 282 282 282 282 283 284 283 282 282 282 281 280 281 280 280 281
279 279 280 281 282 283 284 285 286 287 287 287 287 287 286 286 286 285 285 287 287 287 288 288 287 287 285 283 283 283 282 283 282 281 281 280 280 280 280 280 280 280 280
277 278 278 279 280 281 282 284 285 286 287 287 287 287 287 286 286 285 284 285 286 286 286 287 286 286 285 284 284 282 282 282 282 280 279 279 278 279 279 279 279 279 280
276 276 276 277 278 279 280 282 283 285 286 286 287 287 287 286 286 286 285 285 285 286 285 285 284 284 283 283 283 282 282 282 281 279 278 277 277 278 278 278 278 278 278

GFSMA_925_thetae_024.txt.gz
Theta_e
327 323 319 316 314 315 313 309 305 300 300 299 299 298 298 298 297 298 300 300 304 311 314 315 316 316 318 318 318 318 316 315 317 317 317 318 318 317 318 317 316 318 319
327 323 319 315 315 316 312 310 306 300 299 298 298 298 298 297 297 298 302 301 308 311 313 315 315 316 316 316 315 316 313 313 314 313 314 314 315 315 315 314 313 314 315
326 322 318 315 315 315 312 309 303 300 299 298 297 297 297 297 297 297 299 303 305 309 312 315 315 315 314 311 312 315 311 310 313 310 311 312 313 313 312 311 312 312 313
325 321 316 313 315 313 311 307 301 300 299 298 297 297 296 296 297 297 298 306 307 309 311 313 313 311 309 314 315 312 311 312 310 308 311 311 310 310 309 310 310 310 311
324 319 315 312 312 311 309 304 300 299 299 298 298 297 296 296 296 296 297 304 306 306 309 311 311 309 309 312 311 310 309 309 307 307 306 306 306 307 307 308 308 308 309
322 318 313 311 310 309 307 302 300 298 298 298 298 297 297 297 296 296 297 300 301 302 303 306 307 303 305 307 308 309 308 307 305 304 304 304 304 304 305 305 306 306 307
320 318 312 309 308 307 305 301 299 298 298 298 296 296 296 297 296 296 296 296 295 296 296 295 297 295 296 302 306 307 307 304 302 301 301 302 302 302 302 303 303 304 305
318 315 312 307 306 305 302 300 298 298 298 297 296 296 293 294 294 295 295 295 294 293 293 293 293 295 296 301 306 306 304 301 300 299 298 299 300 300 301 301 302 302 303
315 313 312 308 305 303 301 299 298 298 298 296 297 298 295 295 294 294 295 294 294 293 292 292 292 292 299 302 304 303 300 297 297 296 296 296 297 298 299 300 300 301 301
313 312 310 308 305 303 301 300 298 298 297 297 297 299 300 299 294 292 294 293 293 292 292 291 290 290 296 299 301 302 301 298 290 291 292 293 295 296 298 298 299 299 300
306 308 308 307 305 303 301 299 298 298 297 297 296 298 298 298 299 293 291 292 293 291 291 291 290 290 295 297 298 297 296 290 287 287 287 288 291 294 295 296 297 297 298
302 303 302 304 305 304 302 300 299 298 297 297 297 296 298 297 295 295 293 291 291 291 291 291 290 290 292 296 296 294 289 287 287 287 287 287 288 289 290 293 295 295 296
299 301 301 300 301 303 302 301 299 298 297 297 297 297 296 297 297 298 297 292 291 292 291 291 290 290 290 292 293 292 290 287 286 286 286 287 287 287 288 289 291 293 293
296 296 297 299 298 299 300 300 299 298 297 297 297 297 297 296 296 297 297 294 290 289 290 290 290 290 290 290 292 291 289 287 287 286 286 286 286 287 287 288 290 291 292
293 293 294 295 296 297 297 298 298 298 297 297 296 296 297 297 296 296 297 297 295 288 289 290 290 290 289 290 290 290 289 287 286 286 286 286 287 287 287 287 289 290 291
290 292 292 292 293 294 295 295 296 296 296 296 296 295 296 296 297 296 296 296 297 295 290 291 290 291 289 289 290 289 288 287 285 285 285 286 286 286 287 287 287 288 289
285 286 289 291 291 291 292 293 294 294 295 295 295 294 294 295 295 295 295 296 296 296 292 290 291 290 290 289 289 289 287 285 285 285 285 285 285 285 286 287 287 287 287
284 284 284 285 287 290 290 290 291 292 293 293 293 293 293 293 294 294 294 294 294 295 296 288 290 289 290 289 289 288 286 285 284 284 284 284 284 284 285 286 286 286 286
284 284 284 284 284 284 286 289 289 290 291 291 292 292 292 292 292 292 293 293 293 293 293 292 288 289 288 288 287 286 286 284 283 283 283 284 284 284 285 285 285 284 284
282 283 283 283 283 283 284 284 285 288 289 289 290 290 291 291 291 291 291 291 291 291 291 291 289 288 288 286 286 283 282 283 282 282 283 284 284 284 284 284 285 284 283
281 281 281 282 282 282 283 284 285 286 287 288 288 288 289 289 290 290 290 290 289 289 290 289 288 285 285 284 284 283 282 282 282 283 282 282 283 283 283 283 283 283 283
280 280 280 280 280 281 282 284 285 286 286 287 287 287 287 287 288 289 290 290 290 289 290 289 289 286 285 284 284 283 283 282 282 282 282 282 282 282 283 283 282 283 282
279 279 279 279 279 280 281 283 284 285 285 286 286 286 287 287 287 287 287 288 289 290 289 289 289 288 286 284 283 282 283 284 285 285 282 282 282 282 283 283 282 282 282
278 278 278 278 278 278 280 281 282 283 284 285 285 286 286 287 287 286 286 286 287 288 289 290 289 289 288 285 285 286 285 284 284 285 283 282 283 282 282 282 281 282 282
277 277 276 276 276 277 277 278 280 281 282 283 284 285 285 286 286 287 287 286 286 286 287 288 289 289 288 287 284 284 283 282 280 281 282 283 281 281 282 281 280 282 282
276 275 275 275 274 274 275 276 277 278 280 282 283 283 285 285 286 287 287 287 286 286 286 286 287 288 289 287 285 284 284 284 283 280 280 281 279 280 279 280 280 279 279

GFSMA_925_thetae_027.txt.gz
Theta_e
329 326 326 322 318 314 314 312 307 302 300 301 300 300 299 299 299 299 299 299 300 308 314 316 316 317 317 318 318 318 316 316 316 316 318 318 317 318 318 317 317 318 320
330 327 325 323 319 315 313 312 307 304 300 300 299 299 298 298 298 298 300 300 305 309 314 315 317 318 318 318 317 316 313 315 313 313 315 315 315 315 313 313 313 315 317
331 329 326 323 320 315 314 312 309 306 301 299 298 298 298 298 298 298 300 301 305 310 313 314 314 317 316 315 315 316 311 312 312 311 313 314 313 313 311 311 312 313 314
330 330 327 324 320 315 315 313 310 307 301 299 298 297 297 297 297 297 299 304 305 308 310 315 315 314 312 314 314 314 311 312 310 310 311 311 311 310 309 309 310 310 311
328 328 327 323 317 315 315 313 310 307 300 299 298 297 297 297 297 297 298 303 306 306 310 313 313 312 311 315 315 313 312 310 308 309 307 307 307 307 307 308 308 308 309
327 326 324 321 316 314 314 312 310 303 300 299 298 297 296 297 297 296 297 301 305 305 306 310 311 310 309 311 311 311 310 308 307 305 305 305 305 305 305 306 307 307 307
325 325 321 319 315 313 313 311 307 302 299 298 297 296 296 297 297 296 296 297 300 302 301 303 308 307 305 307 308 310 309 307 305 304 303 303 303 303 303 304 304 305 306
321 321 321 316 313 311 310 309 306 301 299 298 297 295 293 295 296 296 296 296 297 296 296 297 296 299 297 298 303 307 308 306 303 302 301 301 301 302 302 303 303 303 304
317 318 318 316 311 308 308 307 305 301 298 298 297 297 292 293 292 294 295 295 295 295 294 294 294 294 295 296 299 306 307 305 303 301 299 299 300 300 301 301 302 302 303
312 313 313 314 312 307 306 305 304 301 298 298 296 297 298 297 292 293 294 295 295 294 294 293 293 293 294 295 297 304 304 302 299 297 295 295 298 299 299 300 300 301 301
304 305 308 309 308 307 305 304 302 300 298 298 297 297 297 298 297 292 291 292 294 294 294 293 292 292 292 294 297 301 302 302 301 298 290 291 294 297 298 298 299 299 299
299 301 302 301 301 305 305 304 301 300 299 298 297 297 297 297 296 295 291 289 291 293 293 293 292 291 291 291 294 297 299 300 299 295 288 288 288 293 296 297 297 297 297
294 295 296 298 299 299 300 303 302 300 299 298 297 296 296 296 297 298 295 291 290 292 292 292 291 291 291 290 292 294 296 296 294 288 288 288 288 288 291 294 295 295 295
292 292 293 294 295 296 298 298 300 300 299 298 298 297 296 296 296 296 297 294 290 288 290 292 291 291 291 291 290 292 294 294 289 287 288 287 287 287 288 291 293 293 293
286 287 290 292 293 293 294 296 297 297 298 298 297 297 297 296 296 296 296 296 296 293 289 291 293 292 291 291 290 290 291 292 292 287 288 288 287 287 288 290 292 292 292
284 284 285 285 286 290 292 292 293 294 294 295 296 296 296 296 296 296 296 295 295 295 294 293 294 294 293 291 291 290 290 292 291 288 286 287 287 288 289 290 291 291 291
284 284 284 284 284 284 285 288 291 291 291 292 293 294 295 295 295 295 295 295 295 295 294 296 293 293 292 291 290 290 290 290 290 289 286 286 286 287 289 290 290 290 290
284 284 284 284 283 284 284 284 284 286 289 290 291 291 292 293 293 293 293 293 293 294 294 293 293 292 290 291 291 290 290 290 290 289 286 285 286 286 287 288 289 289 289
283 283 283 283 284 284 283 283 284 284 284 286 288 289 290 290 291 291 291 291 291 292 293 293 292 291 290 290 289 289 289 289 289 288 285 284 285 285 286 286 288 288 287
281 281 281 281 281 282 283 283 283 283 284 284 285 286 287 288 289 289 290 290 290 291 291 290 291 289 289 288 288 286 284 287 288 286 284 284 284 285 285 286 288 287 286
281 281 280 280 280 280 281 281 282 283 283 284 284 284 285 285 286 288 288 289 289 289 290 289 290 287 287 287 286 285 285 284 284 284 283 283 284 284 285 287 287 287 286
280 279 279 279 278 279 279 280 282 282 283 283 284 284 284 284 285 285 287 288 289 289 289 290 290 289 288 287 286 285 284 283 282 283 282 282 282 284 285 285 285 286 285
279 278 278 278 277 277 278 279 280 280 281 282 283 283 284 284 284 285 285 286 287 289 290 289 289 290 289 287 286 285 284 285 286 286 283 282 281 282 283 284 284 285 284
277 277 277 277 277 276 277 277 278 278 279 279 280 281 283 283 284 284 285 285 286 286 288 289 290 289 290 289 287 287 286 286 286 285 284 283 282 281 282 282 283 283 284
273 274 274 274 275 275 275 275 276 276 276 276 277 278 279 281 282 284 285 286 285 285 286 287 288 289 290 289 288 285 285 284 284 283 282 284 283 282 282 282 282 284 284
269 269 270 270 270 270 271 272 273 273 274 274 275 276 277 279 281 282 284 285 286 286 285 286 286 287 288 289 289 286 285 284 285 284 283 283 282 282 281 281 281 283 284

GFSMA_925_thetae_030.txt.gz
Theta_e
331 329 327 326 325 319 316 314 311 307 300 301 301 301 300 300 300 300 300 300 300 306 316 316 317 318 318 319 318 319 317 317 316 317 318 318 318 318 319 319 319 320 322
330 329 327 325 325 321 317 314 312 308 302 300 301 300 299 299 299 299 300 300 301 305 314 316 317 318 320 319 320 317 315 315 314 313 316 315 315 316 314 313 313 315 318
329 330 329 326 325 323 318 315 314 311 305 300 300 299 299 298 298 299 299 301 302 306 311 316 318 318 318 318 317 316 314 313 313 311 314 314 313 313 311 311 312 313 314
329 327 329 328 326 323 320 316 314 311 306 301 299 298 298 298 298 298 299 300 301 305 309 312 315 316 317 315 315 316 312 312 311 310 312 313 312 311 310 310 311 311 312
329 328 328 329 327 323 320 316 314 312 308 304 299 298 297 297 297 297 298 300 302 304 307 311 315 316 314 313 315 315 314 313 310 310 310 310 309 309 308 308 309 309 310
329 329 329 328 325 322 318 316 314 312 309 306 299 298 297 296 296 297 297 298 302 305 306 310 314 313 313 312 316 314 313 312 310 308 307 307 307 307 307 307 307 307 308
326 326 326 326 324 320 318 316 313 309 308 303 298 297 296 296 296 296 296 297 300 303 304 306 310 311 311 310 312 313 312 311 309 307 306 305 305 305 305 305 306 306 306
322 323 322 322 320 318 315 313 311 308 304 301 297 294 293 295 296 297 296 296 297 300 301 302 303 307 309 308 308 311 311 310 309 306 305 304 303 303 304 304 305 305 305
313 315 316 315 314 313 312 312 310 307 304 301 298 297 291 292 292 295 296 296 296 297 298 298 298 298 301 304 302 305 309 310 308 306 304 303 302 302 303 303 303 303 304
303 304 306 307 309 307 306 307 308 305 302 301 298 297 296 296 292 292 294 295 295 296 296 295 295 295 295 296 296 297 304 308 308 305 303 301 301 301 302 302 302 302 303
299 300 301 301 301 301 303 304 303 303 302 299 299 298 296 295 296 292 292 292 294 295 295 295 295 294 294 294 295 295 299 307 307 303 300 299 300 300 301 301 301 302 302
295 296 297 298 299 299 299 299 301 302 300 299 298 297 297 296 295 294 290 291 291 296 296 295 295 294 294 293 293 295 298 304 305 303 301 299 295 298 300 300 301 301 301
286 289 291 293 294 295 296 297 298 299 300 299 300 298 297 296 296 296 295 292 290 294 294 295 295 294 294 293 292 292 295 300 302 301 300 298 293 294 297 299 300 300 299
285 285 285 285 288 291 293 293 294 296 297 297 297 297 297 296 296 295 294 294 291 289 292 294 295 295 294 294 293 291 291 294 296 298 297 295 290 291 295 296 298 298 297
284 284 284 285 285 285 285 287 291 292 293 294 294 294 295 295 296 295 295 294 294 294 294 293 293 296 295 293 293 292 291 291 294 296 295 293 289 291 294 295 296 296 296
285 284 284 284 284 284 284 285 285 285 287 290 291 291 293 294 294 294 294 294 294 293 294 295 295 295 295 295 293 292 291 290 292 294 294 292 289 290 293 294 294 295 295
284 284 284 283 284 284 284 284 284 284 284 284 285 287 290 291 292 293 293 293 293 293 292 294 294 295 294 293 293 293 291 291 290 292 293 292 290 291 292 293 294 294 294
284 283 283 283 283 283 283 283 283 283 284 284 284 284 285 286 289 290 291 291 291 291 291 292 293 294 294 294 293 293 292 291 290 290 291 291 290 290 292 292 293 293 293
282 282 282 282 282 282 282 282 282 281 281 282 283 284 284 284 285 286 288 289 289 290 290 290 291 292 293 291 290 290 290 290 290 290 290 291 290 290 291 291 292 292 292
281 281 280 280 280 280 280 280 280 280 281 282 282 283 283 283 284 284 285 286 288 288 289 289 289 290 291 290 289 288 287 288 289 289 289 289 290 289 290 291 291 291 291
279 279 279 279 278 278 278 278 279 280 280 281 281 282 282 283 283 284 285 285 286 287 288 288 289 289 287 287 287 287 287 287 287 287 286 286 287 287 287 288 290 290 290
277 277 277 277 277 277 278 278 279 279 279 279 279 280 281 281 282 283 284 286 287 287 287 288 289 289 289 287 288 288 286 286 286 285 284 283 285 285 286 286 288 288 289
274 274 274 274 275 275 276 277 278 278 278 278 278 278 279 280 280 281 282 284 285 286 287 288 288 288 289 289 287 286 286 287 288 288 286 284 283 283 284 285 285 287 288
271 271 271 271 271 272 273 273 274 274 275 275 276 276 276 277 277 279 280 282 283 283 284 285 287 288 289 289 289 288 287 287 287 287 287 285 285 283 283 284 285 286 288
268 268 268 268 268 268 268 270 271 271 271 272 272 273 273 274 275 276 278 279 280 282 283 284 285 285 286 288 290 288 286 286 286 286 284 284 285 282 282 282 283 285 287
266 266 266 266 265 265 266 268 269 270 270 271 271 272 272 274 275 276 277 278 279 280 282 283 284 285 286 287 288 290 287 286 286 287 285 283 284 282 282 282 281 282 285

GFSMA_925_thetae_033.txt.gz
Theta_e
330 330 329 328 327 325 322 318 316 312 308 302 301 301 300 300 300 300 300 301 299 302 315 318 317 318 318 319 320 318 318 316 316 316 317 318 318 318 319 319 321 322 323
333 328 328 328 327 325 324 320 316 314 311 304 300 300 300 300 299 300 300 300 301 302 312 316 318 318 319 319 319 319 316 315 315 314 316 316 316 316 315 315 315 316 318
333 328 329 329 327 326 325 321 317 315 313 309 302 300 300 299 299 299 299 300 301 303 308 315 317 319 320 320 320 318 316 313 314 311 313 314 314 314 312 311 311 312 314
332 330 328 328 328 327 326 322 319 316 314 311 307 301 299 298 298 298 298 299 301 302 305 310 316 318 319 319 318 317 315 313 313 310 312 313 313 312 310 310 310 311 312
330 329 329 328 327 327 324 322 319 316 314 311 307 302 299 298 298 298 298 298 300 301 304 307 309 312 316 318 316 316 316 313 313 310 311 311 311 310 309 308 309 309 310
327 327 328 327 327 325 322 320 318 316 313 311 307 303 300 298 297 297 297 297 298 300 303 305 308 312 315 315 313 316 316 315 312 310 310 309 308 308 308 308 307 307 308
322 322 321 320 321 321 319 318 316 314 312 308 303 302 301 299 298 297 297 297 297 298 301 304 307 311 313 313 312 316 315 315 312 310 309 307 307 307 307 307 306 307 307
313 315 316 315 314 313 313 312 313 310 308 307 301 295 294 297 298 298 297 297 297 297 299 302 304 306 310 311 311 311 315 313 312 310 308 307 306 306 306 306 306 306 306
302 304 305 307 310 310 308 308 307 306 304 304 301 299 295 293 291 295 296 296 296 296 297 299 301 302 303 307 309 309 309 312 312 311 309 307 305 305 305 305 305 305 305
298 299 300 300 300 300 302 305 305 303 302 301 300 298 297 295 294 294 296 296 296 296 296 296 297 298 298 299 301 305 305 307 310 311 309 306 305 304 304 304 304 304 305
292 293 295 297 298 297 297 298 300 303 302 299 298 297 297 296 294 292 295 293 296 297 296 296 296 296 296 295 295 296 298 299 305 309 309 306 304 303 303 303 304 304 304
285 285 286 288 291 293 294 294 295 297 298 300 300 297 296 295 295 293 292 294 293 295 296 297 297 297 296 296 295 294 294 295 298 306 309 307 303 301 301 302 303 303 303
284 285 285 285 285 285 285 287 291 292 294 295 296 297 297 296 295 295 294 295 293 294 295 296 297 297 298 297 296 295 294 294 296 303 307 306 304 300 299 300 302 302 303
285 285 285 285 285 285 284 285 285 285 286 290 291 292 293 294 295 295 294 294 294 295 295 293 294 295 296 297 296 295 294 293 293 299 303 304 303 301 299 298 300 301 302
285 285 285 285 285 285 285 284 284 284 284 284 284 285 288 290 291 293 294 294 293 294 295 296 295 295 295 296 296 295 294 294 292 293 299 301 299 299 297 297 298 300 300
285 284 284 284 284 284 284 284 284 284 283 284 284 284 284 284 286 289 291 292 293 292 293 294 294 295 295 295 295 295 295 294 293 292 292 296 297 297 296 296 297 298 299
284 283 283 283 283 283 282 282 282 282 282 282 283 282 283 284 284 284 285 288 290 291 290 292 292 293 293 294 295 295 294 293 293 292 291 291 295 295 295 295 296 296 297
283 283 282 282 282 281 281 280 280 280 280 280 281 281 282 282 283 283 284 284 286 287 289 289 290 291 292 293 293 294 294 294 293 293 292 291 291 294 294 293 294 295 296
282 281 281 280 280 279 279 278 278 278 279 279 280 280 281 281 282 282 283 284 284 285 287 288 288 289 289 290 291 292 292 292 292 292 292 291 290 292 293 293 292 293 294
280 279 278 277 277 277 277 277 278 278 278 279 279 279 280 280 281 282 282 283 283 284 285 286 287 287 288 289 289 288 289 290 290 291 291 290 290 291 292 292 292 292 293
278 276 276 276 275 275 276 277 278 278 278 278 278 278 279 279 280 281 281 282 283 284 285 285 286 286 287 287 287 288 287 288 289 290 290 290 288 289 291 291 291 291 291
276 275 274 273 273 273 274 275 276 276 277 277 278 278 278 278 278 278 280 281 282 283 284 285 285 286 286 287 288 287 287 287 287 287 287 287 287 287 288 289 290 291 290
274 273 271 270 270 269 271 272 273 273 273 273 274 275 276 276 277 277 277 278 278 279 281 283 284 286 286 286 287 288 287 287 288 288 287 285 285 285 286 287 289 290 290
271 270 269 268 268 268 269 269 270 271 271 271 271 271 272 273 273 274 274 275 275 276 278 279 281 282 283 285 287 287 287 287 287 287 288 286 287 285 285 285 286 288 289
269 269 267 266 266 265 266 268 269 269 269 270 270 270 271 271 272 273 274 275 275 275 276 277 278 280 282 284 284 286 287 287 287 287 286 286 287 286 285 285 285 286 287
267 266 265 265 265 264 265 267 269 269 269 269 270 270 270 271 272 273 274 274 274 274 275 277 278 278 279 281 283 285 286 287 287 287 286 284 285 285 283 284 284 283 286

GFSMA_925_thetae_036.txt.gz
Theta_e
331 330 330 330 329 327 326 324 322 318 315 310 304 301 301 300 300 300 300 300 301 300 302 318 318 318 318 319 320 319 319 316 316 316 317 318 318 317 317 318 320 321 322
332 331 328 327 325 328 326 325 324 320 316 313 309 302 300 300 300 299 299 300 300 301 303 317 317 319 319 319 319 319 318 315 315 314 315 316 316 316 315 315 314 316 318
330 330 330 328 327 328 327 325 324 322 321 316 313 309 302 300 300 299 299 299 300 301 304 309 318 318 319 320 320 319 317 315 314 313 311 314 314 314 313 311 311 312 313
329 331 330 329 328 328 328 325 324 321 319 318 315 312 307 302 299 298 298 298 299 300 302 305 311 316 319 320 320 320 317 315 314 312 311 313 312 312 311 310 311 310 311
325 324 324 324 324 324 325 324 321 319 317 316 315 312 308 305 302 299 298 297 298 299 300 302 306 310 317 318 319 318 317 316 314 313 311 311 311 311 310 309 309 309 310
321 320 319 319 319 318 316 315 316 316 313 312 311 310 310 309 306 305 303 299 297 297 298 301 303 307 309 311 318 316 316 316 315 313 311 310 310 310 310 309 308 308 308
315 316 315 314 312 313 312 312 312 311 311 309 305 307 308 308 308 306 302 300 298 297 297 298 301 304 309 313 315 314 316 316 316 313 312 310 309 308 308 308 308 308 308
305 305 306 308 309 309 308 307 307 307 306 307 303 299 298 302 300 298 297 298 298 297 296 296 298 301 304 308 311 312 312 315 316 315 313 311 309 308 307 307 307 307 307
299 300 301 300 300 301 301 303 304 302 302 303 302 301 299 297 293 303 303 299 297 297 297 297 297 297 299 301 304 307 310 310 312 314 313 311 310 308 307 307 307 307 307
291 293 294 295 296 296 296 296 298 300 300 299 299 299 298 295 295 296 298 300 299 298 297 297 296 296 296 297 297 299 300 305 308 308 312 313 311 308 306 306 306 306 306
286 286 286 287 288 288 290 292 294 295 296 297 297 296 296 295 295 293 295 295 296 299 299 297 297 297 297 297 296 296 296 296 298 303 306 311 311 309 306 305 305 305 306
285 285 285 285 285 285 285 285 286 288 290 293 294 295 295 294 295 294 293 296 295 296 298 298 298 298 297 297 297 297 296 296 295 295 298 304 309 308 307 305 304 305 305
285 285 285 285 285 285 285 285 285 285 285 285 285 287 290 292 292 293 293 294 294 295 295 296 297 297 298 298 297 297 296 295 295 294 294 296 306 308 306 305 303 303 304
284 284 284 284 284 284 284 284 283 283 284 284 284 284 284 284 286 289 291 292 293 294 295 295 296 296 297 297 297 296 297 296 295 294 293 296 303 306 306 305 303 302 302
284 284 284 283 283 283 283 283 283 283 282 282 283 283 283 284 284 284 285 289 291 293 293 294 295 295 295 295 296 296 295 295 295 294 293 293 301 303 303 303 303 301 301
284 283 283 283 282 282 281 281 281 281 281 281 281 281 282 282 282 283 284 284 286 289 290 292 292 292 292 293 293 294 295 296 295 294 294 293 293 299 301 301 301 300 300
283 282 282 282 281 281 280 280 280 280 280 280 280 280 280 281 281 281 282 282 283 285 287 287 287 287 288 289 290 291 292 294 294 295 295 294 292 293 297 299 298 298 299
282 281 281 280 280 279 279 279 279 279 278 279 279 279 279 279 280 280 280 281 282 283 285 285 285 286 286 286 286 287 290 291 292 293 294 294 293 292 293 295 296 296 296
281 280 279 278 278 277 277 277 277 277 278 278 278 278 278 279 279 279 280 280 281 282 283 284 284 285 285 286 286 286 286 288 291 291 292 293 293 292 292 295 295 296 295
281 280 278 278 277 276 276 275 276 276 276 277 277 278 278 278 278 278 279 279 280 281 282 282 283 284 284 285 286 287 287 287 287 290 291 291 292 292 291 292 295 295 295
279 278 278 277 276 275 274 274 274 274 275 275 275 276 276 277 278 279 279 279 279 280 281 282 283 283 284 284 285 286 286 286 287 288 289 289 290 290 291 290 293 295 295
278 277 276 275 273 272 271 273 273 273 273 272 272 272 272 273 274 275 277 278 279 280 280 280 281 282 283 284 284 285 286 286 286 287 287 288 289 288 289 289 290 291 293
277 276 274 273 272 271 270 271 272 271 271 271 271 271 271 271 271 272 272 274 275 275 277 277 278 278 279 281 282 284 285 285 286 286 287 286 288 289 288 288 288 289 291
275 274 272 271 270 270 269 269 270 270 270 269 269 270 270 270 270 271 272 273 273 274 274 274 275 276 277 277 278 280 281 282 285 286 286 286 287 287 287 289 288 288 289
273 272 270 270 269 269 268 269 270 270 269 269 269 269 270 270 270 272 273 274 274 274 273 274 275 276 277 278 279 279 280 283 284 284 285 285 286 286 286 287 288 288 288
271 270 269 268 268 268 268 267 269 270 270 270 270 270 270 271 272 273 273 273 273 273 273 273 273 274 274 274 275 277 279 280 281 284 285 285 285 286 285 286 286 287 287

GFSMA_925_thetae_042.txt.gz
Theta_e
330 332 331 331 330 329 327 326 326 324 323 320 319 317 313 307 302 300 300 300 300 300 301 303 318 322 320 320 320 320 319 318 317 315 316 317 318 318 318 318 319 319 319
330 330 330 330 330 328 327 326 325 324 322 319 315 316 315 315 314 308 302 300 299 299 300 301 306 320 322 321 320 319 319 318 316 315 314 315 316 316 315 315 315 316 316
328 328 327 326 325 325 324 324 323 322 320 319 317 316 314 315 314 311 309 305 301 299 298 299 302 307 318 321 322 322 322 320 316 315 314 312 314 314 313 313 311 312 313
325 325 324 323 323 323 322 322 321 320 318 319 318 317 316 314 313 314 314 313 311 307 301 298 299 302 308 315 319 321 322 321 318 316 314 312 312 313 312 312 310 311 311
320 320 319 319 318 318 319 318 318 317 316 316 316 315 316 314 312 311 311 312 311 310 306 302 298 298 301 306 313 318 320 321 319 317 315 313 312 312 311 312 311 310 310
312 312 312 313 313 314 314 313 312 312 311 310 311 312 312 312 312 310 306 303 302 303 300 299 299 298 297 300 305 309 314 320 318 318 316 315 313 312 312 311 311 311 310
302 303 304 303 304 304 304 304 307 307 306 304 307 310 309 308 306 304 303 302 303 300 302 303 301 298 298 297 298 303 310 315 317 317 319 316 314 313 311 311 310 310 310
300 299 298 297 298 299 299 300 301 305 305 302 304 307 311 310 303 304 304 301 300 301 301 300 298 298 297 297 297 297 300 306 312 314 315 317 318 315 313 312 310 310 310
292 292 292 291 292 292 293 294 296 298 301 300 300 302 307 309 303 304 303 301 301 300 300 301 300 300 301 301 300 298 297 297 298 302 308 311 314 316 316 313 312 310 310
287 287 287 287 287 287 287 287 288 290 293 294 298 297 299 298 301 303 301 301 299 299 299 299 299 299 299 299 300 301 300 298 297 296 297 299 304 310 313 315 313 311 309
286 286 286 286 286 286 285 285 286 286 288 288 289 290 292 295 297 296 298 296 294 294 296 296 295 297 297 298 298 299 299 297 296 296 296 296 296 297 305 311 314 312 310
285 285 285 285 285 285 284 284 284 284 285 286 286 287 288 289 289 289 290 290 291 291 290 292 293 295 296 297 296 296 296 296 296 296 295 295 295 296 298 302 310 313 312
285 285 285 284 283 283 283 283 283 283 283 283 284 285 285 286 286 287 288 288 289 288 289 290 291 292 293 295 295 293 293 294 295 296 296 295 294 295 297 300 302 309 312
284 283 283 283 282 282 282 282 282 282 282 282 283 283 283 284 284 284 285 286 288 287 288 288 289 292 289 294 291 286 288 287 287 290 294 295 296 294 296 300 301 303 309
283 283 282 282 282 282 282 282 282 282 282 282 282 282 282 283 283 283 283 284 285 287 288 287 287 289 291 288 286 286 285 285 286 286 286 291 294 295 296 295 300 303 306
283 282 282 282 281 281 281 281 281 281 281 281 281 281 281 281 281 282 282 283 283 284 287 285 285 285 285 285 285 285 285 285 285 285 285 286 287 292 294 296 295 302 305
282 282 282 281 281 280 280 280 280 280 280 280 280 280 280 280 280 281 281 281 281 282 284 284 284 284 284 284 284 285 285 285 286 285 284 285 285 286 290 293 295 295 302
283 282 281 281 280 280 280 279 278 278 278 279 278 278 279 279 279 279 280 280 280 280 281 282 282 282 282 283 283 283 284 285 285 285 286 285 285 285 286 288 292 294 294
283 282 281 280 279 279 279 278 278 277 277 277 277 277 277 276 276 277 277 277 278 278 279 280 281 281 281 281 282 283 284 284 285 285 286 286 286 285 285 286 287 291 293
282 281 280 279 279 279 278 277 276 277 277 276 276 275 275 275 275 275 275 275 276 277 277 278 279 280 280 280 281 282 283 284 285 285 285 285 286 286 285 285 285 286 290
281 280 279 279 278 278 276 276 276 276 276 275 275 275 274 273 273 273 274 274 274 275 275 276 276 277 278 279 280 280 281 281 281 281 283 285 286 287 287 288 288 287 286
280 279 279 278 277 277 276 276 275 275 275 274 274 273 273 273 273 272 272 273 273 274 274 275 275 275 276 277 277 278 278 278 280 279 282 282 284 285 286 286 287 287 288
279 278 278 277 277 276 276 274 274 274 274 273 273 273 272 272 272 272 272 273 273 273 274 275 275 275 275 275 276 276 276 277 278 278 279 280 280 281 281 283 285 287 287
278 276 276 276 275 275 274 273 273 273 273 273 272 272 272 272 272 272 273 273 274 274 274 274 275 275 275 275 275 276 276 277 278 278 278 279 280 281 281 282 283 284 285
276 275 276 275 275 275 274 272 272 273 273 273 273 272 272 272 273 274 275 275 275 275 275 275 275 276 276 277 277 277 278 278 278 278 277 277 278 278 279 279 280 283 285
275 274 274 274 274 274 273 272 272 273 273 274 273 274 274 274 274 275 276 276 277 277 276 276 276 276 276 276 276 276 276 277 277 277 277 277 277 277 278 278 280 282 283

GFSMA_925_thetae_045.txt.gz
Theta_e
331 332 332 331 329 328 327 326 324 324 322 319 317 316 312 313 313 307 305 303 300 300 300 301 309 321 323 321 321 320 320 318 317 316 315 316 317 317 317 317 317 319 319
330 330 329 329 328 327 327 326 325 323 322 322 321 321 319 316 314 313 312 310 307 302 300 299 300 304 317 321 323 320 320 319 317 316 314 313 315 316 315 315 314 314 316
325 326 325 326 325 325 325 324 324 323 321 321 319 319 319 318 316 313 310 310 310 311 310 303 299 300 303 315 319 322 325 323 319 317 315 314 313 314 314 313 312 312 313
323 321 320 319 320 321 321 321 322 320 320 318 318 318 319 318 314 314 311 307 307 307 306 307 305 299 299 302 311 318 321 324 322 319 316 314 313 312 313 313 313 311 311
314 315 315 315 316 316 315 314 313 313 313 312 313 314 315 315 314 313 310 308 306 305 303 302 302 301 299 298 301 307 317 320 323 320 318 316 315 313 312 312 312 312 311
307 309 309 308 308 308 307 309 310 310 308 307 307 310 311 311 310 308 306 302 302 301 301 302 303 301 299 298 297 299 305 314 317 320 318 317 316 314 313 313 312 312 311
302 302 301 302 303 302 302 303 306 308 306 303 308 308 310 309 304 304 305 304 302 302 302 300 300 299 299 299 298 299 300 305 312 316 318 318 319 317 316 314 313 312 312
297 297 296 296 297 296 296 297 299 303 302 302 302 306 311 309 305 305 304 303 303 301 301 302 302 301 301 301 301 301 299 299 302 305 309 312 315 317 318 316 314 313 312
291 291 291 291 290 290 289 290 291 294 296 298 297 302 304 306 301 304 303 302 301 299 297 297 299 299 299 299 300 300 300 300 299 297 297 302 305 308 313 317 316 314 313
289 289 289 289 288 288 288 288 288 289 290 291 292 293 296 297 300 299 297 295 292 292 291 296 292 292 296 298 298 298 298 297 297 298 297 297 297 302 305 308 314 316 315
288 287 287 287 287 286 286 286 286 287 288 288 289 289 290 290 294 290 292 291 290 290 292 290 290 294 292 295 297 297 296 295 296 296 296 296 296 296 301 304 305 310 314
286 286 286 285 285 285 285 285 285 285 285 286 286 287 288 288 288 288 289 289 289 289 289 288 292 290 292 290 295 296 293 287 287 290 293 295 296 297 297 301 303 304 307
286 285 285 285 284 284 284 284 284 284 284 284 285 285 286 286 286 286 286 287 287 287 287 288 288 291 291 292 292 295 293 288 286 287 288 288 291 296 298 299 300 303 304
285 284 284 284 283 283 283 283 283 283 283 284 284 284 284 285 285 285 285 285 286 286 287 287 287 287 288 292 291 289 288 286 287 288 289 286 288 290 295 298 299 300 302
284 284 283 283 283 283 282 283 283 283 282 283 283 283 283 283 283 283 283 284 285 286 286 286 286 286 286 286 286 286 285 285 286 287 288 289 289 289 291 293 296 299 300
284 283 283 282 282 282 282 282 282 282 282 282 282 282 282 282 282 282 282 282 283 283 284 284 284 284 284 284 284 284 284 285 285 286 287 287 288 289 290 291 292 295 298
283 283 282 282 281 281 281 281 281 280 280 280 281 280 280 280 280 280 280 281 281 282 282 282 282 282 282 282 282 283 283 283 283 284 285 286 287 288 289 290 290 292 294
283 283 282 282 281 281 280 280 280 279 279 279 279 279 279 279 278 278 278 278 278 278 279 280 279 279 280 280 281 281 281 282 283 284 285 286 287 287 288 288 289 290 290
283 283 282 281 281 280 280 279 279 279 279 279 278 278 278 277 277 277 276 276 276 277 277 278 278 278 278 278 279 280 281 281 282 284 285 285 286 286 287 287 288 289 289
283 282 282 281 280 280 279 279 279 278 278 278 278 277 277 276 276 275 275 275 275 275 275 276 276 276 276 277 277 278 279 279 279 280 280 281 282 282 284 287 288 288 287
282 282 281 281 280 280 279 279 278 278 277 277 277 276 276 275 274 274 274 274 274 274 274 275 275 275 275 276 276 277 277 277 277 278 278 278 279 282 282 284 287 288 288
282 281 281 280 280 279 278 278 277 277 276 276 276 275 275 274 274 274 274 274 274 275 275 275 275 275 276 276 276 276 276 276 277 277 277 278 278 279 279 280 281 283 285
281 280 280 280 279 278 277 277 276 276 275 276 275 275 274 274 274 273 274 274 274 274 275 276 276 276 276 275 275 276 276 276 276 277 277 278 278 278 279 279 281 282 283
280 280 279 279 277 277 276 275 275 275 275 275 274 274 274 274 274 274 274 275 276 276 276 276 276 276 276 276 276 276 276 277 277 277 278 278 278 278 278 278 278 279 281
279 279 279 278 277 276 275 275 274 274 275 275 275 274 274 274 274 276 276 276 276 276 275 276 276 276 277 277 278 278 278 277 277 277 277 277 277 277 277 278 277 278 280
279 278 277 277 276 276 275 274 273 273 274 274 275 275 275 276 276 276 276 275 274 274 273 274 274 274 274 274 276 276 277 277 276 276 276 277 277 277 277 277 277 278 277

GFSMA_925_thetae_048.txt.gz
Theta_e
331 330 328 330 329 328 327 326 324 323 323 321 318 318 319 319 318 316 313 311 309 304 301 300 300 303 316 323 322 320 319 319 318 317 315 313 315 316 317 316 316 316 317
328 328 327 327 327 326 326 324 325 323 323 322 321 319 317 316 316 314 312 310 307 308 307 303 301 302 305 308 321 322 323 322 320 318 317 315 312 315 315 314 315 314 315
324 325 324 323 322 323 323 322 323 322 321 320 319 318 318 317 314 311 310 308 306 306 305 304 304 301 301 305 311 318 322 323 325 320 317 316 314 312 314 314 313 312 312
322 321 319 319 319 320 320 319 318 318 316 315 315 315 315 315 312 312 310 308 307 305 303 302 301 301 301 304 307 310 315 320 321 323 320 317 316 315 314 313 313 312 312
315 315 314 312 312 313 313 312 311 311 308 309 309 311 312 311 310 309 306 303 302 301 302 302 301 301 300 303 304 305 308 312 317 319 321 320 317 315 314 313 312 313 312
311 310 308 308 307 307 306 309 308 307 305 303 308 309 310 309 305 304 305 303 302 302 301 302 302 302 301 302 304 304 305 306 308 312 317 318 318 317 316 315 314 314 313
303 304 303 301 301 300 299 304 304 301 300 299 302 308 307 305 303 305 303 302 302 300 299 298 299 299 296 299 300 303 305 305 305 306 307 310 313 316 317 319 318 315 314
298 297 297 294 291 291 291 294 298 294 297 294 299 304 302 305 301 302 300 297 296 292 291 291 298 292 293 296 297 300 301 302 302 303 303 304 305 308 310 313 317 317 315
292 292 291 290 290 290 289 289 290 290 291 291 294 297 297 298 298 300 299 291 292 288 289 294 294 288 292 293 297 296 298 298 298 299 300 301 302 303 305 307 310 314 317
289 289 289 289 288 288 287 287 287 287 288 288 288 289 289 290 294 293 291 290 287 288 287 290 287 291 291 289 293 295 295 296 290 293 296 298 300 301 302 303 305 308 310
288 288 288 288 287 286 286 285 285 286 286 286 287 287 287 288 288 287 286 287 286 286 287 286 287 289 288 290 291 290 295 294 293 292 291 292 293 296 299 302 303 304 306
287 287 286 286 285 285 285 285 285 285 285 285 285 285 286 286 286 286 285 285 285 285 285 287 286 286 288 288 291 292 292 293 291 290 290 290 291 293 293 296 300 302 303
286 285 285 285 285 284 284 284 284 284 284 284 284 284 284 285 285 285 285 285 284 284 285 284 285 285 286 287 287 288 288 288 287 287 288 289 290 291 292 293 295 298 302
285 285 285 285 285 284 284 284 284 283 283 283 283 283 283 283 283 283 283 283 283 284 283 284 284 284 286 284 283 284 283 284 284 286 287 288 289 290 291 292 293 293 296
285 285 285 284 284 284 283 283 283 283 283 282 282 282 282 282 282 281 282 282 283 282 282 282 283 282 282 282 282 282 282 282 283 284 285 286 286 288 289 290 291 292 293
285 284 284 284 283 283 283 282 282 282 282 282 281 281 281 281 280 280 280 280 281 281 281 281 281 280 280 280 279 280 280 280 281 282 283 284 285 287 288 289 290 291 292
285 284 284 284 283 283 282 282 282 281 281 281 280 280 280 279 279 279 278 278 278 278 278 278 278 278 277 278 278 277 278 278 280 281 281 282 284 286 287 288 288 289 290
285 285 284 283 283 283 282 281 281 281 281 280 280 279 279 278 278 277 277 276 276 276 276 276 276 276 276 276 276 276 276 277 278 279 282 283 283 283 284 285 286 287 288
285 285 284 284 283 282 281 281 281 280 280 280 279 279 278 278 277 276 276 275 275 275 275 275 275 275 275 275 275 275 275 276 276 277 277 278 279 280 280 282 284 286 287
285 284 284 283 282 282 281 280 280 280 279 279 279 278 277 277 276 275 275 275 275 274 274 274 274 274 275 275 275 275 276 276 275 276 276 277 277 278 279 280 280 282 283
284 284 283 282 282 281 280 280 279 279 279 279 279 278 277 276 275 276 275 275 275 275 274 274 275 275 275 275 276 276 276 275 275 275 276 276 276 277 277 278 278 279 281
284 283 283 282 281 280 280 280 279 279 278 278 277 277 276 275 275 275 275 275 276 276 276 275 275 276 276 276 276 276 276 276 276 276 276 276 277 277 277 278 278 279 280
284 283 282 281 281 280 279 280 279 278 278 277 276 276 275 275 274 274 274 275 276 275 276 277 276 276 276 276 276 276 276 276 277 277 277 277 277 277 277 277 277 278 279
284 283 282 282 280 280 279 279 278 277 277 277 276 275 275 275 274 274 275 276 276 276 276 275 275 275 275 276 277 277 277 277 277 277 277 277 276 276 276 277 277 278 278
283 283 282 281 281 280 279 278 277 277 276 276 275 275 275 275 275 276 277 277 276 274 274 273 274 275 275 274 274 274 274 275 276 276 276 276 276 276 276 276 276 277 278
283 282 281 281 280 280 278 278 277 276 275 275 275 275 275 276 276 277 277 276 274 273 273 273 272 271 270 270 272 272 274 275 275 275 276 276 276 276 276 276 277 276 276